CAPE
0 0 0 0 0 0 0 0 0 0 0 0 0 0 0 0 0 0 0 0 0 0 0 0 0 0 0 0 87 195 249 35 13 0 0 24 128 261 490 593 473 412 420 407 443
0 0 0 0 0 0 0 0 0 0 0 0 0 0 0 0 0 0 0 0 0 0 0 0 0 0 0 0 10 136 0 0 18 22 18 55 154 294 553 525 311 447 637 657 486
0 0 0 0 0 0 0 0 0 0 0 0 0 0 0 0 0 0 0 0 0 0 0 0 0 0 0 0 0 0 0 0 17 60 74 94 169 262 554 533 466 478 593 640 574
0 0 0 0 0 0 0 0 0 0 0 0 0 0 0 0 0 0 0 0 0 0 0 0 0 0 0 0 0 0 0 0 23 38 52 72 110 181 243 716 516 652 622 615 503
0 0 0 0 0 0 0 0 0 0 0 0 0 0 0 0 0 0 0 0 0 0 0 0 0 0 0 0 0 0 0 0 14 4 5 26 58 217 257 331 620 695 643 595 590
0 0 0 0 0 0 0 0 0 0 0 0 0 0 0 0 0 0 0 0 0 0 0 0 0 0 0 0 0 0 0 0 0 29 8 30 81 71 269 286 730 784 623 624 609
0 0 0 0 0 0 0 0 0 0 0 0 0 0 0 0 0 0 0 0 0 0 0 0 0 0 0 0 0 0 0 0 0 30 14 43 88 70 198 298 300 406 650 618 563
0 0 0 0 0 0 0 0 0 0 0 0 0 0 0 0 0 0 0 0 0 0 0 0 0 0 0 0 0 0 0 0 0 41 0 4 87 88 121 194 224 269 727 707 489
0 0 0 0 0 0 0 0 0 0 0 0 0 0 0 0 0 0 0 0 0 0 0 0 0 0 0 0 0 0 0 0 1 20 8 43 57 98 147 171 139 162 191 428 498
0 0 0 0 0 0 0 0 0 0 0 0 0 0 0 0 0 0 0 0 0 0 0 0 0 0 0 0 0 0 0 0 0 11 7 26 31 61 174 236 197 101 91 178 254
0 0 0 0 0 0 0 0 0 0 0 0 0 0 0 0 0 0 0 0 0 0 0 0 0 0 0 0 0 0 0 0 0 0 3 38 68 29 118 278 241 143 103 113 147
0 0 0 0 0 0 0 0 0 0 0 0 0 0 0 0 0 0 0 0 0 0 0 0 0 0 0 0 0 0 0 0 0 0 0 29 52 44 45 190 237 180 140 128 118
0 0 0 0 0 0 0 0 0 0 0 0 0 0 0 0 0 0 0 0 0 0 0 0 0 0 0 0 0 0 0 0 0 0 0 2 15 46 18 61 173 219 163 158 161
0 0 0 0 0 0 0 0 0 0 0 0 0 0 0 0 0 0 0 0 0 0 0 0 0 0 0 0 0 0 0 0 0 0 0 0 13 4 12 17 100 254 289 245 248
0 0 0 0 0 0 0 0 0 0 0 0 0 0 0 0 0 0 0 0 0 0 0 0 0 0 0 0 0 0 0 0 0 0 0 0 0 10 1 2 71 249 330 337 332
0 0 0 0 0 0 0 0 0 0 0 0 0 0 0 0 0 0 0 0 0 0 0 0 0 0 0 0 0 0 0 0 0 0 0 0 0 1 0 0 16 203 288 361 361
0 0 0 0 0 0 0 0 0 0 0 0 0 0 0 0 0 0 0 0 0 0 0 0 0 0 0 0 0 0 0 0 0 0 0 0 0 0 5 0 0 1 261 260 328
0 0 0 0 0 0 0 0 0 0 0 0 0 0 0 0 0 0 0 0 0 0 0 0 0 0 0 0 0 0 0 0 0 0 0 0 0 0 0 5 0 0 7 70 249
0 0 0 0 0 0 0 0 0 0 0 0 0 0 0 0 0 0 0 0 0 0 0 0 0 0 0 0 0 0 0 0 0 0 0 0 0 5 0 0 0 0 0 67 231
0 0 0 0 0 0 0 0 0 0 0 0 0 0 0 0 0 0 0 0 0 0 0 0 0 0 0 0 0 0 0 0 0 0 0 1 2 0 0 0 0 0 0 5 170
0 0 0 0 0 0 0 0 0 0 0 0 0 0 0 0 0 0 0 0 0 0 0 0 0 0 0 0 0 0 0 0 0 0 0 2 0 0 0 0 0 0 24 137 329
0 0 0 0 0 0 0 0 0 0 0 0 0 0 0 0 0 0 0 0 0 0 0 0 0 0 0 0 0 0 0 0 0 0 0 0 0 0 0 0 0 0 1 1 187
0 0 0 0 0 0 0 0 0 0 0 0 0 0 0 0 0 0 0 0 0 0 0 0 0 0 0 0 0 0 0 0 0 0 0 0 0 0 0 0 0 0 2 127 310
0 0 0 0 0 0 0 0 0 0 0 0 0 0 0 0 0 0 0 0 0 0 0 0 0 0 0 0 0 0 0 0 0 0 0 0 0 0 0 0 0 0 0 7 781
0 0 0 0 0 0 0 0 0 0 0 0 0 0 0 0 0 0 0 0 0 0 0 0 0 0 0 0 0 0 0 0 0 0 0 0 0 0 0 0 0 0 11 71 1370
0 0 0 0 0 0 0 0 0 0 0 0 0 0 0 0 0 0 0 0 1 3 0 0 0 0 0 0 0 0 0 0 0 0 0 76 3 0 0 0 0 0 0 727 1659
0 0 0 0 0 0 0 0 0 0 0 0 0 0 0 0 0 0 0 0 0 0 0 0 0 0 0 0 0 0 0 0 0 0 0 3 9 0 0 0 0 0 15 1468 1549
CIN
-0 -0 -0 -0 -0 -0 -0 -0 -0 -0 -0 -0 -0 -0 -0 -0 -0 -0 -0 -0 -0 -0 -0 -0 -0 -0 -0 -0 -118 -278 -90 -11 -10 -46 -0 -196 -115 -92 -86 -143 -128 -153 -104 -22 -0
-0 -0 -0 -0 -0 -0 -0 -0 -0 -0 -0 -0 -0 -0 -0 -0 -0 -0 -0 -0 -0 -0 -0 -0 -0 -0 -0 -0 -45 -86 -0 -0 -99 -124 -223 -178 -131 -103 -165 -211 -201 -158 -28 -16 -19
-0 -0 -0 -0 -0 -0 -0 -0 -0 -0 -0 -0 -0 -0 -0 -0 -0 -0 -0 -0 -0 -0 -0 -0 -0 -0 -0 -0 -0 -0 -0 -0 -46 -96 -113 -143 -128 -129 -140 -194 -197 -192 -98 -43 -37
-0 -0 -0 -0 -0 -0 -0 -0 -0 -0 -0 -0 -0 -0 -0 -0 -0 -0 -0 -0 -0 -0 -0 -0 -0 -0 -0 -0 -0 -0 -0 -0 -48 -47 -122 -114 -141 -120 -144 -153 -189 -164 -124 -76 -64
-0 -0 -0 -0 -0 -0 -0 -0 -0 -0 -0 -0 -0 -0 -0 -0 -0 -0 -0 -0 -0 -0 -0 -0 -0 -0 -1 -0 -0 -0 -0 -0 -7 -18 -183 -157 -166 -157 -144 -144 -158 -97 -71 -76 -60
-0 -0 -0 -0 -0 -0 -0 -0 -0 -0 -0 -0 -0 -0 -0 -0 -0 -0 -0 -0 -0 -0 -0 -0 -0 -0 -0 -0 -0 -0 -0 -0 -0 -9 -96 -128 -125 -155 -150 -133 -65 -83 -110 -95 -79
-0 -0 -0 -0 -0 -0 -0 -0 -0 -0 -0 -0 -0 -0 -0 -0 -0 -0 -0 -0 -0 -0 -0 -0 -0 -0 -0 -0 -0 -0 -0 -0 -0 -63 -107 -124 -157 -151 -173 -141 -105 -71 -69 -81 -126
-0 -0 -0 -0 -0 -0 -0 -0 -0 -0 -0 -0 -0 -0 -0 -0 -0 -0 -0 -0 -0 -0 -0 -0 -0 -0 -0 -0 -0 -0 -0 -0 -7 -64 -0 -13 -140 -145 -167 -159 -140 -101 -47 -52 -89
-0 -0 -0 -0 -0 -0 -0 -0 -0 -0 -0 -0 -0 -0 -0 -0 -0 -0 -0 -0 -0 -0 -0 -0 -0 -0 -0 -0 -0 -0 -0 -0 -12 -62 -40 -57 -144 -146 -162 -157 -175 -169 -139 -65 -33
-0 -0 -0 -0 -0 -0 -0 -0 -0 -0 -0 -0 -0 -0 -0 -0 -0 -0 -0 -0 -0 -0 -0 -0 -0 -0 -0 -0 -0 -0 -0 -0 -0 -69 -42 -81 -103 -149 -168 -145 -153 -194 -214 -177 -138
-0 -0 -0 -0 -0 -0 -0 -0 -0 -0 -0 -0 -0 -0 -0 -0 -0 -0 -0 -0 -0 -0 -0 -0 -0 -0 -0 -0 -0 -0 -0 -0 -0 -0 -4 -64 -72 -130 -177 -184 -168 -194 -209 -238 -227
-0 -0 -0 -0 -0 -0 -0 -0 -0 -0 -0 -0 -0 -0 -0 -0 -0 -0 -0 -0 -0 -0 -0 -0 -0 -0 -0 -0 -0 -0 -0 -0 -0 -0 -0 -42 -52 -107 -137 -137 -169 -176 -176 -206 -260
-0 -0 -0 -0 -0 -0 -0 -0 -0 -0 -0 -0 -0 -0 -0 -0 -0 -0 -0 -0 -0 -0 -0 -0 -0 -0 -0 -0 -0 -0 -0 -0 -0 -0 -0 -16 -35 -70 -97 -129 -155 -177 -170 -165 -189
-0 -0 -0 -0 -0 -0 -0 -0 -0 -0 -0 -0 -0 -0 -0 -0 -0 -0 -0 -0 -0 -0 -0 -0 -0 -0 -0 -0 -0 -0 -0 -0 -0 -0 -0 -0 -32 -66 -82 -137 -137 -173 -178 -167 -163
-0 -0 -0 -0 -0 -0 -0 -0 -0 -0 -0 -0 -0 -0 -0 -0 -0 -0 -0 -0 -0 -0 -0 -0 -0 -0 -0 -0 -0 -0 -0 -0 -0 -0 -0 -0 -0 -68 -62 -43 -124 -135 -157 -171 -193
-0 -0 -0 -0 -0 -0 -0 -0 -0 -0 -0 -0 -0 -0 -0 -0 -0 -0 -0 -0 -0 -0 -0 -0 -0 -0 -0 -0 -0 -0 -0 -0 -0 -0 -0 -0 -0 -34 -0 -0 -86 -97 -102 -121 -162
-0 -0 -0 -0 -0 -0 -0 -0 -0 -0 -0 -0 -0 -0 -0 -0 -0 -0 -0 -0 -0 -0 -0 -0 -0 -0 -0 -0 -0 -0 -0 -0 -0 -0 -0 -0 -0 -0 -72 -0 -0 -26 -80 -106 -141
-0 -0 -0 -0 -0 -0 -0 -0 -0 -0 -0 -0 -0 -0 -0 -0 -0 -0 -0 -0 -0 -0 -0 -0 -0 -0 -0 -0 -0 -0 -0 -0 -0 -0 -0 -0 -0 -0 -0 -76 -0 -0 -22 -69 -91
-0 -0 -0 -0 -0 -0 -0 -0 -0 -0 -0 -0 -0 -0 -0 -0 -0 -0 -0 -0 -0 -0 -0 -0 -0 -0 -0 -0 -0 -0 -0 -0 -0 -0 -0 -0 -0 -64 -0 -0 -0 -0 -0 -54 -84
-0 -0 -0 -0 -0 -0 -0 -0 -0 -0 -0 -0 -0 -0 -0 -0 -0 -0 -0 -0 -0 -0 -0 -0 -0 -0 -0 -0 -0 -0 -0 -0 -0 -0 -0 -8 -8 -0 -0 -0 -0 -0 -0 -14 -48
-0 -0 -0 -0 -0 -0 -0 -0 -0 -0 -0 -0 -0 -0 -0 -0 -0 -0 -0 -0 -0 -0 -0 -0 -0 -0 -0 -0 -0 -0 -0 -0 -0 -0 -0 -13 -0 -0 -0 -0 -0 -0 -97 -74 -70
-0 -0 -0 -0 -0 -0 -0 -0 -0 -0 -0 -0 -0 -0 -0 -0 -0 -0 -0 -0 -0 -0 -0 -0 -0 -0 -0 -0 -0 -0 -0 -0 -0 -0 -0 -0 -0 -0 -0 -0 -0 -0 -8 -8 -114
-0 -0 -0 -0 -0 -0 -0 -0 -0 -0 -0 -0 -0 -0 -0 -0 -0 -0 -0 -0 -0 -0 -0 -0 -0 -0 -0 -0 -0 -0 -0 -0 -0 -0 -0 -0 -0 -0 -0 -0 -0 -0 -56 -172 -160
-0 -0 -0 -0 -0 -0 -0 -0 -0 -0 -0 -0 -0 -0 -0 -0 -0 -0 -0 -0 -0 -0 -0 -0 -0 -0 -0 -0 -0 -0 -0 -0 -0 -0 -0 -0 -0 -0 -0 -0 -0 -0 -0 -67 -152
-0 -0 -0 -0 -0 -0 -0 -0 -0 -0 -0 -0 -0 -0 -0 -0 -0 -0 -0 -0 -0 -0 -0 -0 -0 -0 -0 -0 -0 -0 -0 -0 -0 -0 -0 -0 -0 -0 -0 -0 -0 -0 -158 -166 -176
-0 -0 -0 -0 -0 -0 -0 -0 -0 -0 -0 -0 -0 -0 -0 -0 -0 -0 -0 -0 -25 -8 -0 -0 -0 -0 -0 -0 -0 -0 -0 -0 -0 -0 -0 -20 -13 -0 -0 -0 -0 -0 -0 -165 -226
-0 -2 -1 -0 -0 -0 -0 -0 -0 -0 -0 -0 -0 -0 -0 -0 -0 -0 -0 -0 -0 -22 -0 -0 -0 -0 -0 -0 -0 -0 -0 -0 -0 -0 -0 -11 -35 -0 -0 -0 -0 -0 -56 -157 -232
Wind_Speed
22 21 21 21 21 21 22 22 22 23 23 23 23 23 22 22 22 21 21 21 19 18 17 17 17 17 13 13 15 13 13 17 26 27 30 30 32 35 34 34 29 32 33 33 31
23 22 22 22 22 22 23 23 23 23 23 23 23 23 22 21 22 25 26 24 21 19 18 18 16 13 11 12 10 15 19 22 23 27 28 29 30 31 32 34 36 36 35 34 32
24 24 23 23 23 24 24 24 24 23 23 23 23 23 21 20 22 25 26 29 24 21 20 19 17 16 12 10 7 15 24 21 22 24 26 28 31 30 32 30 32 34 34 33 32
25 25 25 24 25 24 25 25 24 23 23 23 23 22 21 21 23 18 20 25 24 22 21 18 16 13 12 11 12 17 14 23 24 25 25 26 28 28 29 29 30 33 34 34 32
26 26 26 25 25 25 25 25 23 22 22 22 22 22 22 25 28 19 18 22 24 24 24 21 17 15 14 12 12 18 17 21 23 22 26 27 26 27 29 29 31 31 31 31 30
27 27 27 27 26 26 26 24 22 21 22 22 22 21 23 27 16 14 22 22 27 27 24 22 16 16 14 10 10 10 10 24 22 23 26 26 25 26 27 28 28 29 29 29 30
29 28 28 28 27 26 26 24 22 21 21 21 21 21 26 29 6 6 11 25 28 27 25 22 18 16 15 12 13 20 22 26 26 27 23 26 23 24 27 26 26 26 27 27 28
30 29 29 29 28 27 26 24 22 21 20 19 19 21 27 28 28 10 24 27 28 27 25 21 18 18 17 14 15 21 20 23 25 22 23 18 22 24 25 26 25 24 25 25 27
31 31 30 30 29 28 27 25 23 21 19 17 18 20 25 21 23 30 29 29 28 27 25 22 18 21 19 16 16 19 20 23 22 19 22 20 24 24 24 25 24 24 23 24 25
32 32 32 31 30 29 29 25 20 21 19 20 24 20 28 32 31 31 30 30 29 26 26 24 21 23 21 19 18 18 17 24 18 20 20 24 24 24 24 24 24 24 23 24 24
33 33 33 32 31 30 26 19 18 19 23 25 22 24 19 29 29 34 33 30 29 27 29 27 25 26 23 20 17 16 14 22 21 17 17 20 23 25 26 24 21 21 22 22 22
34 34 34 34 33 31 22 21 23 25 28 33 36 36 33 28 21 30 19 28 31 32 30 28 28 28 24 20 18 17 15 25 20 14 14 21 21 23 26 23 21 20 20 20 21
35 35 35 35 35 23 23 27 29 29 30 34 37 33 33 32 24 25 11 27 27 34 32 30 27 27 24 19 19 22 17 23 17 14 13 19 21 22 21 21 22 20 20 20 20
35 35 35 36 24 23 23 25 31 30 29 31 31 38 35 20 31 22 15 22 26 34 34 31 32 28 22 17 23 24 19 17 18 15 14 17 17 21 21 21 22 21 20 19 19
36 35 34 30 29 25 24 27 25 22 30 24 26 13 21 26 13 35 11 22 34 14 26 34 30 29 28 14 25 26 19 17 9 13 14 12 12 20 22 18 20 20 21 21 20
38 37 35 27 26 30 30 29 23 25 33 24 15 19 20 30 39 17 15 24 32 34 32 35 31 30 23 4 29 25 11 19 18 14 18 18 8 14 21 20 18 19 20 21 22
40 39 38 32 25 22 28 22 27 36 24 23 15 16 19 23 31 29 16 18 29 27 36 32 36 33 23 10 29 27 8 8 7 11 11 15 12 7 21 19 17 15 19 19 21
41 43 35 31 31 29 24 26 39 31 34 20 15 15 21 23 31 29 19 24 38 39 26 27 32 36 14 12 5 19 4 6 7 10 2 16 6 8 11 13 7 7 15 15 19
41 34 33 31 28 26 26 39 39 34 30 27 23 21 26 25 26 34 25 21 23 35 27 15 29 29 18 15 27 19 7 16 29 29 23 8 12 9 12 12 8 9 7 9 16
38 35 37 31 22 22 32 45 40 40 34 28 33 28 26 28 33 27 39 23 23 25 39 27 23 24 19 19 26 17 14 7 13 7 12 3 5 2 7 6 7 10 12 14 8
32 34 31 25 24 29 43 45 46 45 42 35 37 37 34 28 32 35 36 27 21 25 28 39 30 34 20 14 10 24 20 13 13 14 12 13 9 6 6 7 9 13 12 17 20
30 36 23 18 34 40 51 41 40 43 44 42 39 40 38 35 31 35 40 35 21 19 29 29 23 30 33 21 13 11 25 26 17 19 19 13 5 1 4 6 10 13 16 19 19
33 35 28 28 40 44 43 45 49 49 50 42 41 41 40 38 31 28 36 34 23 24 28 27 31 34 34 21 15 13 14 23 18 23 24 20 12 6 3 6 10 14 17 19 19
31 32 29 31 37 40 43 49 49 47 54 48 48 43 42 41 33 33 34 31 30 28 22 25 28 28 28 21 15 16 18 24 18 21 21 20 4 3 1 3 8 13 16 19 16
30 32 27 33 39 43 45 45 48 48 50 46 50 48 46 42 37 38 35 33 32 26 24 25 31 30 34 35 27 17 17 17 21 23 19 17 10 7 3 1 5 10 14 17 16
30 27 28 38 36 38 42 48 54 48 44 45 49 51 44 46 40 40 35 33 27 25 26 25 30 30 32 36 33 33 20 16 17 22 20 7 6 6 3 2 5 10 13 15 17
24 28 31 35 38 39 40 41 49 46 49 47 45 49 47 47 39 36 38 38 34 30 27 25 29 29 35 35 34 37 30 25 19 14 22 21 14 8 7 3 4 8 10 12 14
Wind_Direction
313 309 305 301 296 290 286 280 275 270 262 254 249 249 249 251 247 232 214 215 215 219 223 213 202 197 199 187 163 119 136 111 86 74 80 67 57 54 56 64 46 71 85 99 98
315 309 306 302 298 292 289 282 277 270 261 254 251 249 246 250 238 222 214 215 222 225 215 204 216 248 225 221 216 142 85 34 80 75 78 79 69 80 74 69 71 78 91 96 98
314 310 306 302 299 295 291 285 278 270 261 255 252 248 240 245 235 221 210 195 212 215 218 224 232 249 245 244 214 21 61 33 59 81 79 80 80 84 76 79 90 93 99 102 104
313 310 306 302 299 296 294 287 279 269 260 255 253 247 242 236 205 237 231 213 217 221 220 228 235 244 248 206 193 32 351 56 48 73 70 81 80 68 68 95 100 103 105 106 106
311 309 306 302 299 297 295 289 280 268 258 256 254 246 235 223 210 232 233 223 221 217 211 215 231 250 275 232 273 47 38 57 65 72 74 72 63 58 70 87 105 104 106 105 105
309 307 306 303 299 296 296 290 278 269 260 256 253 247 237 216 252 255 219 223 198 196 215 203 211 250 228 243 264 215 202 77 68 87 83 70 70 59 82 93 100 107 110 104 107
307 306 304 302 299 295 294 288 277 270 265 259 251 245 235 210 297 314 120 213 196 192 198 210 221 239 245 231 205 176 160 94 91 91 76 74 56 63 94 97 101 106 108 110 117
305 303 302 300 298 295 291 284 273 270 271 263 252 246 233 219 210 116 158 192 189 199 204 225 235 218 212 218 187 175 175 144 114 102 146 81 94 92 101 106 106 106 110 114 122
303 301 299 297 296 293 289 278 267 268 268 264 255 251 237 248 224 210 195 198 191 199 209 216 237 207 211 189 208 180 158 145 129 114 117 112 110 112 112 113 109 108 107 115 122
302 299 297 295 293 292 288 272 273 267 264 250 240 250 235 221 219 213 212 201 196 209 206 209 213 187 194 193 177 177 185 136 131 132 125 112 122 127 126 123 114 112 113 120 123
300 299 296 293 290 290 289 283 277 271 254 246 247 237 260 214 219 207 201 208 208 214 199 205 198 178 181 181 187 194 201 150 133 115 122 126 134 141 143 130 121 121 119 122 127
298 297 295 292 287 283 283 269 261 278 262 226 224 223 230 225 234 217 230 220 212 204 200 201 181 193 201 206 215 202 202 138 124 105 116 139 144 146 150 147 134 128 131 130 132
298 296 295 292 285 284 274 264 265 272 265 252 231 231 223 224 234 229 224 227 228 196 187 181 183 192 205 209 189 189 165 124 124 104 94 138 146 148 155 153 149 140 138 140 140
294 295 295 296 280 280 271 286 257 272 263 253 243 231 229 240 233 237 236 235 235 198 199 195 205 206 200 189 166 177 191 201 124 111 133 149 156 166 162 159 157 154 150 148 146
292 291 291 291 273 270 275 287 283 278 255 259 241 248 240 234 262 229 195 238 224 253 240 213 209 207 207 141 168 179 238 269 113 120 147 165 161 178 165 157 166 165 163 161 157
289 287 288 283 278 267 273 277 274 254 249 262 235 220 224 233 229 246 221 242 235 235 238 220 228 218 244 297 184 196 219 280 282 190 209 199 177 163 171 173 169 169 171 170 166
287 283 277 271 265 282 282 273 250 245 255 258 206 210 223 235 237 241 220 232 237 242 234 240 225 233 257 241 195 200 351 2 41 123 155 187 187 168 171 170 164 171 179 177 172
286 281 274 266 264 265 271 252 244 249 242 266 202 224 235 236 238 241 229 241 235 233 250 250 246 235 269 270 238 174 319 126 88 44 126 220 177 127 153 163 117 146 178 178 178
289 282 271 262 260 255 251 241 243 243 242 248 246 238 243 239 243 240 235 235 241 239 249 250 254 249 263 268 250 263 182 277 269 253 327 41 31 53 92 109 91 55 80 185 184
284 277 266 257 247 243 245 243 244 242 243 248 248 253 249 240 239 238 241 233 246 242 239 257 262 260 261 262 257 272 281 274 297 328 341 1 312 109 106 63 47 21 15 3 183
277 268 265 248 235 238 240 243 244 243 246 249 253 258 259 246 243 242 244 244 240 246 245 245 260 253 266 236 241 257 269 279 293 296 329 350 349 24 45 20 27 3 18 4 8
270 257 256 240 232 239 241 246 251 248 248 250 254 255 258 262 242 245 244 245 237 242 245 248 264 261 262 269 233 252 260 265 280 280 302 319 317 16 26 359 7 9 354 352 1
261 259 260 242 236 240 245 249 249 247 243 249 248 251 254 259 261 258 247 246 237 244 244 243 251 258 262 279 228 232 254 271 272 277 286 302 315 300 318 327 356 10 7 358 4
259 252 247 247 248 243 244 245 248 247 242 245 247 252 253 256 259 256 260 257 242 243 234 242 247 252 255 269 253 247 264 267 271 271 281 289 276 195 247 337 352 3 2 360 24
252 246 259 244 245 247 249 249 246 245 241 243 245 247 248 253 254 253 260 261 254 234 236 237 246 251 257 258 269 258 255 262 262 271 278 277 255 237 196 81 350 347 355 1 16
250 252 259 254 253 251 247 245 243 246 246 242 242 242 249 250 254 249 255 258 260 249 236 241 250 249 259 256 262 268 277 237 255 270 273 264 240 178 202 253 326 348 355 6 13
264 268 257 248 250 249 247 250 245 245 246 244 245 241 247 247 255 254 255 257 258 260 251 238 246 248 254 258 263 264 266 279 256 254 266 262 253 201 211 237 320 333 358 16 14